Regional Weather Roundup
Issued by NWS

Home | Current Version | Previous Version | Text Only | Print | Product List | Glossary Off
Versions: 1 2 3 4 5 6 7 8 9 10 11 12 13 14 15 16 17 18 19 20 21 22 23 24 25 26 27 28 29 30 31 32 33 34 35 36 37 38 39 40 41 42 43 44 45 46 47 48 49 50

000
ASUS43 KLMK 230102
RWRKY
KENTUCKY REGIONAL WEATHER ROUNDUP
NATIONAL WEATHER SERVICE LOUISVILLE KY
900 PM EDT MON SEP 22 2014

NOTE "FAIR" INDICATES FEW OR NO CLOUDS BELOW 12,000 FEET
WITH NO SIGNIFICANT WEATHER AND/OR OBSTRUCTIONS TO VISIBILITY.

KYZ001>023-026-027-061>063-070>075-230200-
WESTERN AND SOUTH CENTRAL KENTUCKY

CITY           SKY/WX    TMP DP  RH WIND       PRES   REMARKS
PADUCAH        CLEAR     63  48  58 CALM      30.21R
HENDERSON      CLEAR     57  46  67 N3        30.24R
OWENSBORO      CLEAR     62  49  62 CALM      30.24R
HOPKINSVILLE   CLEAR     58  45  61 N7        30.21R
BOWLING GREEN  CLEAR    N/A N/A N/A CALM      30.21R
GLASGOW        CLEAR     58  45  62 CALM      30.22R
$$

KYZ024-025-028>034-038-045-046-053-230200-
NORTH CENTRAL KENTUCKY

CITY           SKY/WX    TMP DP  RH WIND       PRES   REMARKS
LOUISVILLE/SDF CLEAR     61  45  55 N7        30.23R
LOUISVILLE/LOU CLEAR     59  46  62 NW3       30.24R
FORT KNOX      CLEAR     54  46  76 N5        30.23R
$$

KYZ035>037-039>044-047>052-055>060-089>105-230200-
NORTHEAST KENTUCKY

CITY           SKY/WX    TMP DP  RH WIND       PRES   REMARKS
LEXINGTON      CLEAR     57  45  64 N6        30.24R
COVINGTON      CLEAR     56  43  61 NW3       30.24R
FRANKFORT      CLEAR     53  47  79 CALM      30.23R
$$

KYZ054-064>069-076>088-106>120-230200-
SOUTHEAST KENTUCKY

CITY           SKY/WX    TMP DP  RH WIND       PRES   REMARKS
JACKSON        CLEAR     58  46  64 N5        30.23R
LONDON         CLEAR     58  47  66 N3        30.23R
SOMERSET       CLEAR     55  43  62 NE3       30.23R
MIDDLESBORO    CLEAR     56  52  87 CALM      30.22R
MONTICELLO     CLEAR     51  48  89 CALM      30.23R
$$



USA.gov is the U.S. government's official web portal to all federal, state and local government web resources and services.